Language: 


Des rapports , des résumés tant et plus, au choix de chacun....


Données statistiques de la station
Quotidien Rapport Septembre 21, 2017 Unités:  Métrique    Anglais   les deux
« Précédent Jour
Suivant Jour »
Quotidien Hebdomadaire Mensuel Annuel Actuel
  Haut: Bas: Moyen:
Température: 21.5 °C 0.0 °C 14.5 °C
Pt de rosée: 13.0 °C 9.0 °C 10.9 °C
Humidité: 98 % 0 % 80 %
Vitesse du vent: 18.3 km/h 0.0 km/h 3.5 km/h
Rafales: 24.5 km/h - -
Vent:- - South
Pression: 1019.9 hPa 1016.1 hPa -
Précipitation: 0.0 mm    
Historical Graphs
 
 
Données statistiques pour Septembre 21, 2017
Heure Température Point de rosée Pression Vent Vitesse du vent Refales Humidité Pluie (taux horaire)
00:01 11.2 °C 10.0 °C 1018.8 hPa Calm     94 % 0.0 mm
00:06 11.2 °C 10.0 °C 1018.8 hPa Calm     94 % 0.0 mm
00:11 11.2 °C 10.0 °C 1018.8 hPa Calm   1.4 km/h 94 % 0.0 mm
00:16 11.2 °C 10.0 °C 1018.8 hPa Calm   1.4 km/h 94 % 0.0 mm
00:21 11.1 °C 10.0 °C 1018.8 hPa Calm     94 % 0.0 mm
00:26 11.1 °C 10.0 °C 1018.8 hPa Calm     94 % 0.0 mm
00:31 11.1 °C 10.0 °C 1019.9 hPa Calm     94 % 0.0 mm
00:36 11.1 °C 10.0 °C 1019.9 hPa SSE 4.7 km/h 4.7 km/h 95 % 0.0 mm
00:41 11.1 °C 10.0 °C 1019.9 hPa Calm   4.7 km/h 95 % 0.0 mm
00:46 11.1 °C 10.0 °C 1018.8 hPa Calm   4.7 km/h 95 % 0.0 mm
00:51 11.1 °C 10.0 °C 1018.8 hPa Calm     95 % 0.0 mm
00:56 10.9 °C 10.0 °C 1018.8 hPa Calm   1.4 km/h 95 % 0.0 mm
01:01 10.9 °C 10.0 °C 1018.8 hPa SSE 2.1 km/h 2.1 km/h 95 % 0.0 mm
01:06 10.9 °C 11.0 °C 1018.8 hPa Calm   3.2 km/h 96 % 0.0 mm
01:11 10.9 °C 11.0 °C 1018.8 hPa Calm   3.2 km/h 96 % 0.0 mm
01:16 10.8 °C 10.0 °C 1018.8 hPa Calm   3.2 km/h 96 % 0.0 mm
01:21 10.8 °C 10.0 °C 1018.8 hPa Calm   3.2 km/h 96 % 0.0 mm
01:26 10.8 °C 10.0 °C 1018.8 hPa SSE 4.0 km/h 4.0 km/h 96 % 0.0 mm
01:31 10.8 °C 10.0 °C 1018.8 hPa Calm   5.0 km/h 96 % 0.0 mm
01:36 10.8 °C 10.0 °C 1018.8 hPa Calm   5.0 km/h 96 % 0.0 mm
01:41 10.9 °C 11.0 °C 1018.8 hPa Calm   1.8 km/h 97 % 0.0 mm
01:46 10.9 °C 11.0 °C 1018.8 hPa Calm   4.3 km/h 97 % 0.0 mm
01:52 10.9 °C 11.0 °C 1018.8 hPa Calm   4.3 km/h 97 % 0.0 mm
01:57 10.9 °C 11.0 °C 1018.8 hPa Calm   4.3 km/h 97 % 0.0 mm
02:02 10.9 °C 11.0 °C 1018.8 hPa Calm   4.3 km/h 97 % 0.0 mm
02:07 10.9 °C 11.0 °C 1018.8 hPa Calm   4.0 km/h 96 % 0.0 mm
02:12 10.9 °C 11.0 °C 1018.8 hPa South 1.4 km/h 4.0 km/h 96 % 0.0 mm
02:17 10.8 °C 10.0 °C 1018.8 hPa Calm   1.4 km/h 96 % 0.0 mm
02:22 10.7 °C 10.0 °C 1018.8 hPa Calm   1.4 km/h 96 % 0.0 mm
02:27 10.6 °C 10.0 °C 1018.8 hPa SSW 2.1 km/h 2.1 km/h 96 % 0.0 mm
02:32 10.6 °C 10.0 °C 1018.8 hPa SSE 2.6 km/h 3.5 km/h 96 % 0.0 mm
02:37 10.6 °C 10.0 °C 1018.8 hPa Calm   4.7 km/h 96 % 0.0 mm
02:42 10.5 °C 10.0 °C 1018.8 hPa Calm   4.7 km/h 96 % 0.0 mm
02:47 10.5 °C 10.0 °C 1018.8 hPa Calm   1.4 km/h 96 % 0.0 mm
02:52 10.5 °C 10.0 °C 1018.8 hPa Calm   4.0 km/h 96 % 0.0 mm
02:57 10.4 °C 10.0 °C 1018.8 hPa Calm   4.0 km/h 96 % 0.0 mm
03:02 0.0 °C 10.0 °C 1018.8 hPa Calm     0 % 0.0 mm
03:07 10.3 °C 10.0 °C 1018.8 hPa Calm   1.4 km/h 97 % 0.0 mm
03:12 10.3 °C 10.0 °C 1018.8 hPa Calm   4.7 km/h 97 % 0.0 mm
03:17 10.3 °C 10.0 °C 1018.8 hPa SSE 6.1 km/h 6.1 km/h 97 % 0.0 mm
03:22 10.2 °C 10.0 °C 1018.8 hPa Calm   6.1 km/h 97 % 0.0 mm
03:27 10.3 °C 10.0 °C 1018.8 hPa Calm   3.5 km/h 97 % 0.0 mm
03:32 10.3 °C 10.0 °C 1018.8 hPa Calm   3.5 km/h 97 % 0.0 mm
03:37 10.3 °C 10.0 °C 1018.8 hPa Calm   3.5 km/h 97 % 0.0 mm
03:42 10.3 °C 10.0 °C 1018.8 hPa South 5.8 km/h 6.1 km/h 97 % 0.0 mm
03:47 10.3 °C 10.0 °C 1018.8 hPa Calm   6.1 km/h 97 % 0.0 mm
03:52 10.2 °C 10.0 °C 1018.8 hPa Calm   1.8 km/h 97 % 0.0 mm
03:57 10.2 °C 10.0 °C 1018.8 hPa Calm   2.1 km/h 97 % 0.0 mm
04:02 10.1 °C 10.0 °C 1018.8 hPa Calm   2.1 km/h 97 % 0.0 mm
04:07 10.1 °C 10.0 °C 1018.8 hPa Calm     97 % 0.0 mm
04:13 10.0 °C 10.0 °C 1018.8 hPa Calm     97 % 0.0 mm
04:18 9.9 °C 10.0 °C 1018.8 hPa Calm   1.8 km/h 97 % 0.0 mm
04:23 9.8 °C 9.0 °C 1018.8 hPa Calm   1.8 km/h 97 % 0.0 mm
04:28 9.7 °C 9.0 °C 1018.8 hPa Calm   4.7 km/h 97 % 0.0 mm
04:33 9.7 °C 9.0 °C 1018.8 hPa Calm   4.7 km/h 97 % 0.0 mm
04:38 9.7 °C 9.0 °C 1018.8 hPa Calm   3.2 km/h 97 % 0.0 mm
04:43 9.7 °C 10.0 °C 1018.8 hPa Calm   4.3 km/h 98 % 0.0 mm
04:48 9.7 °C 10.0 °C 1018.2 hPa South 2.1 km/h 4.3 km/h 98 % 0.0 mm
04:53 9.6 °C 10.0 °C 1018.2 hPa Calm   3.2 km/h 98 % 0.0 mm
04:58 9.6 °C 10.0 °C 1018.2 hPa Calm   3.2 km/h 98 % 0.0 mm
05:03 9.6 °C 10.0 °C 1018.2 hPa Calm   1.8 km/h 98 % 0.0 mm
05:08 9.5 °C 10.0 °C 1018.2 hPa Calm     98 % 0.0 mm
05:13 9.5 °C 10.0 °C 1018.2 hPa Calm     98 % 0.0 mm
05:18 9.5 °C 10.0 °C 1018.2 hPa Calm     98 % 0.0 mm
05:24 9.5 °C 10.0 °C 1018.2 hPa Calm     98 % 0.0 mm
05:25 9.5 °C 10.0 °C 1018.2 hPa Calm   1.8 km/h 98 % 0.0 mm
05:28 9.5 °C 10.0 °C 1018.2 hPa Calm   1.8 km/h 98 % 0.0 mm
05:33 9.5 °C 10.0 °C 1018.2 hPa Calm   1.8 km/h 98 % 0.0 mm
05:38 9.5 °C 10.0 °C 1018.2 hPa Calm   3.5 km/h 98 % 0.0 mm
05:43 9.5 °C 10.0 °C 1018.2 hPa Calm   3.5 km/h 98 % 0.0 mm
05:48 9.5 °C 10.0 °C 1018.2 hPa Calm     98 % 0.0 mm
05:53 9.4 °C 9.0 °C 1018.2 hPa Calm     98 % 0.0 mm
05:58 9.4 °C 9.0 °C 1018.2 hPa Calm     98 % 0.0 mm
06:03 9.3 °C 9.0 °C 1018.2 hPa Calm     98 % 0.0 mm
06:08 9.3 °C 9.0 °C 1018.2 hPa SSE 6.9 km/h 6.9 km/h 98 % 0.0 mm
06:13 9.4 °C 9.0 °C 1018.2 hPa Calm   6.9 km/h 98 % 0.0 mm
06:18 9.4 °C 9.0 °C 1018.2 hPa Calm   1.8 km/h 98 % 0.0 mm
06:23 9.5 °C 10.0 °C 1018.2 hPa SSE 2.6 km/h 2.6 km/h 98 % 0.0 mm
06:28 9.5 °C 10.0 °C 1018.2 hPa SSE 1.8 km/h 2.6 km/h 98 % 0.0 mm
06:33 9.6 °C 10.0 °C 1018.2 hPa Calm   5.0 km/h 98 % 0.0 mm
06:38 9.5 °C 10.0 °C 1018.2 hPa Calm   5.0 km/h 98 % 0.0 mm
06:43 9.5 °C 10.0 °C 1018.2 hPa Calm     98 % 0.0 mm
06:49 9.4 °C 9.0 °C 1018.2 hPa Calm     98 % 0.0 mm
06:54 9.4 °C 9.0 °C 1018.2 hPa Calm     98 % 0.0 mm
06:59 9.4 °C 9.0 °C 1018.2 hPa Calm     98 % 0.0 mm
07:04 9.4 °C 9.0 °C 1018.2 hPa Calm     98 % 0.0 mm
07:09 9.3 °C 9.0 °C 1018.2 hPa Calm     98 % 0.0 mm
07:14 9.2 °C 9.0 °C 1018.2 hPa Calm     98 % 0.0 mm
07:19 9.2 °C 9.0 °C 1018.2 hPa Calm     98 % 0.0 mm
07:24 9.2 °C 9.0 °C 1018.2 hPa Calm     98 % 0.0 mm
07:29 9.3 °C 9.0 °C 1018.2 hPa Calm     98 % 0.0 mm
07:34 9.2 °C 9.0 °C 1018.2 hPa Calm     98 % 0.0 mm
07:39 9.2 °C 9.0 °C 1018.2 hPa Calm     98 % 0.0 mm
07:44 9.3 °C 9.0 °C 1018.2 hPa Calm     98 % 0.0 mm
07:49 9.3 °C 9.0 °C 1018.2 hPa Calm     98 % 0.0 mm
07:54 9.4 °C 9.0 °C 1018.2 hPa Calm     98 % 0.0 mm
07:59 9.4 °C 9.0 °C 1018.2 hPa Calm     98 % 0.0 mm
08:04 9.7 °C 10.0 °C 1018.2 hPa Calm     98 % 0.0 mm
08:09 9.8 °C 10.0 °C 1018.2 hPa Calm     98 % 0.0 mm
08:14 10.0 °C 10.0 °C 1018.2 hPa Calm     98 % 0.0 mm
08:19 10.1 °C 10.0 °C 1018.2 hPa Calm     98 % 0.0 mm
08:24 10.2 °C 10.0 °C 1018.2 hPa Calm     98 % 0.0 mm
08:29 10.4 °C 10.0 °C 1018.2 hPa Calm     98 % 0.0 mm
08:35 10.4 °C 10.0 °C 1018.2 hPa Calm     98 % 0.0 mm
08:40 10.8 °C 11.0 °C 1018.2 hPa Calm     98 % 0.0 mm
08:45 11.1 °C 11.0 °C 1018.2 hPa Calm     98 % 0.0 mm
08:50 11.4 °C 11.0 °C 1018.2 hPa Calm     98 % 0.0 mm
08:55 11.5 °C 12.0 °C 1018.2 hPa Calm     98 % 0.0 mm
09:00 11.8 °C 12.0 °C 1018.2 hPa Calm     98 % 0.0 mm
09:05 12.1 °C 12.0 °C 1018.2 hPa Calm     97 % 0.0 mm
09:10 12.3 °C 12.0 °C 1018.2 hPa Calm   5.8 km/h 97 % 0.0 mm
09:15 12.7 °C 13.0 °C 1018.2 hPa SSW 1.4 km/h 12.2 km/h 96 % 0.0 mm
09:20 12.9 °C 13.0 °C 1018.2 hPa Calm   12.2 km/h 95 % 0.0 mm
09:25 13.2 °C 13.0 °C 1018.2 hPa SSE 11.9 km/h 11.9 km/h 95 % 0.0 mm
09:30 13.2 °C 12.0 °C 1018.2 hPa SSE 9.7 km/h 11.9 km/h 91 % 0.0 mm
09:35 13.3 °C 12.0 °C 1018.2 hPa SSW 2.6 km/h 11.9 km/h 91 % 0.0 mm
09:40 13.3 °C 12.0 °C 1018.2 hPa SSW 8.7 km/h 9.0 km/h 91 % 0.0 mm
09:45 13.3 °C 12.0 °C 1018.2 hPa South 4.7 km/h 9.0 km/h 91 % 0.0 mm
09:50 13.7 °C 13.0 °C 1018.2 hPa SSW 4.3 km/h 9.0 km/h 92 % 0.0 mm
09:55 13.9 °C 13.0 °C 1018.2 hPa Calm   10.1 km/h 91 % 0.0 mm
10:00 14.2 °C 13.0 °C 1018.2 hPa South 5.8 km/h 10.1 km/h 90 % 0.0 mm
10:05 14.5 °C 13.0 °C 1018.2 hPa South 9.3 km/h 10.1 km/h 87 % 0.0 mm
10:10 14.5 °C 13.0 °C 1018.2 hPa South 5.0 km/h 10.1 km/h 87 % 0.0 mm
10:15 14.7 °C 12.0 °C 1018.2 hPa South 8.7 km/h 16.3 km/h 84 % 0.0 mm
10:20 14.9 °C 13.0 °C 1018.2 hPa SSW 10.5 km/h 16.3 km/h 84 % 0.0 mm
10:25 15.2 °C 13.0 °C 1018.2 hPa SSW 12.2 km/h 12.6 km/h 83 % 0.0 mm
10:35 15.6 °C 13.0 °C 1018.2 hPa Calm   12.2 km/h 81 % 0.0 mm
10:40 15.9 °C 13.0 °C 1018.2 hPa WSW 4.7 km/h 10.1 km/h 81 % 0.0 mm
10:45 16.1 °C 12.0 °C 1018.2 hPa South 6.9 km/h 12.2 km/h 78 % 0.0 mm
10:51 15.9 °C 12.0 °C 1018.2 hPa SSE 7.9 km/h 12.6 km/h 78 % 0.0 mm
10:56 16.4 °C 13.0 °C 1018.2 hPa SSW 2.1 km/h 12.6 km/h 79 % 0.0 mm
11:01 16.4 °C 13.0 °C 1018.2 hPa Calm   12.2 km/h 79 % 0.0 mm
11:06 17.2 °C 13.0 °C 1018.2 hPa South 7.9 km/h 12.2 km/h 76 % 0.0 mm
11:11 17.2 °C 13.0 °C 1018.2 hPa South 11.6 km/h 11.6 km/h 73 % 0.0 mm
11:16 17.4 °C 13.0 °C 1018.2 hPa SE 6.1 km/h 13.0 km/h 73 % 0.0 mm
11:21 17.4 °C 13.0 °C 1018.2 hPa South 5.5 km/h 13.0 km/h 73 % 0.0 mm
11:26 17.5 °C 13.0 °C 1018.2 hPa South 7.9 km/h 10.1 km/h 73 % 0.0 mm
11:31 18.1 °C 13.0 °C 1018.2 hPa South 9.0 km/h 12.6 km/h 72 % 0.0 mm
11:36 18.0 °C 12.0 °C 1018.2 hPa SSW 6.9 km/h 13.0 km/h 69 % 0.0 mm
11:41 18.0 °C 13.0 °C 1018.2 hPa SE 5.8 km/h 13.0 km/h 70 % 0.0 mm
11:46 18.3 °C 13.0 °C 1018.2 hPa South 10.5 km/h 12.6 km/h 68 % 0.0 mm
11:51 18.2 °C 13.0 °C 1018.2 hPa SSW 7.9 km/h 15.1 km/h 68 % 0.0 mm
11:56 18.3 °C 13.0 °C 1018.2 hPa South 2.1 km/h 15.1 km/h 68 % 0.0 mm
12:01 18.6 °C 12.0 °C 1018.2 hPa SSW 7.9 km/h 12.6 km/h 66 % 0.0 mm
12:06 18.8 °C 12.0 °C 1018.2 hPa South 11.9 km/h 12.6 km/h 66 % 0.0 mm
12:11 18.7 °C 12.0 °C 1018.2 hPa South 4.7 km/h 21.2 km/h 65 % 0.0 mm
12:16 19.0 °C 13.0 °C 1018.2 hPa South 9.7 km/h 21.2 km/h 67 % 0.0 mm
12:21 19.1 °C 13.0 °C 1018.2 hPa SSE 7.2 km/h 13.0 km/h 65 % 0.0 mm
12:26 19.2 °C 13.0 °C 1018.2 hPa SSE 6.9 km/h 13.0 km/h 64 % 0.0 mm
12:31 19.3 °C 13.0 °C 1018.2 hPa South 6.1 km/h 16.3 km/h 64 % 0.0 mm
12:36 19.3 °C 13.0 °C 1018.2 hPa South 9.0 km/h 16.3 km/h 64 % 0.0 mm
12:41 19.7 °C 13.0 °C 1018.2 hPa SSE 10.5 km/h 12.6 km/h 64 % 0.0 mm
12:47 19.7 °C 13.0 °C 1018.2 hPa South 10.1 km/h 15.4 km/h 63 % 0.0 mm
12:52 20.0 °C 13.0 °C 1018.2 hPa SW 13.0 km/h 15.4 km/h 64 % 0.0 mm
12:57 20.2 °C 13.0 °C 1018.2 hPa South 18.3 km/h 18.3 km/h 62 % 0.0 mm
13:02 20.3 °C 13.0 °C 1018.2 hPa SSW 8.7 km/h 18.3 km/h 61 % 0.0 mm
13:07 20.3 °C 13.0 °C 1018.2 hPa SSE 16.3 km/h 19.5 km/h 61 % 0.0 mm
13:12 20.3 °C 13.0 °C 1018.2 hPa South 6.9 km/h 19.5 km/h 61 % 0.0 mm
13:17 20.6 °C 13.0 °C 1018.2 hPa SSW 10.1 km/h 17.2 km/h 59 % 0.0 mm
13:22 20.6 °C 13.0 °C 1018.2 hPa SSW 12.2 km/h 15.4 km/h 59 % 0.0 mm
13:27 20.7 °C 13.0 °C 1018.2 hPa SSW 12.2 km/h 15.4 km/h 60 % 0.0 mm
13:32 20.7 °C 11.0 °C 1018.2 hPa South 11.6 km/h 13.7 km/h 54 % 0.0 mm
13:37 20.8 °C 11.0 °C 1018.2 hPa South 9.0 km/h 13.7 km/h 54 % 0.0 mm
13:42 20.8 °C 11.0 °C 1018.2 hPa South 10.1 km/h 14.8 km/h 54 % 0.0 mm
13:47 21.1 °C 12.0 °C 1018.2 hPa SSW 9.0 km/h 16.3 km/h 54 % 0.0 mm
13:52 21.0 °C 11.0 °C 1018.2 hPa South 17.2 km/h 19.8 km/h 51 % 0.0 mm
13:57 20.9 °C 11.0 °C 1018.2 hPa South 13.7 km/h 19.8 km/h 52 % 0.0 mm
14:02 20.8 °C 11.0 °C 1016.8 hPa SW 7.9 km/h 17.7 km/h 54 % 0.0 mm
14:05 21.0 °C 12.0 °C 1016.8 hPa South 11.1 km/h 17.7 km/h 54 % 0.0 mm
14:10 21.0 °C 12.0 °C 1016.8 hPa SSW 8.7 km/h 24.5 km/h 54 % 0.0 mm
14:15 21.0 °C 12.0 °C 1016.8 hPa South 10.5 km/h 24.5 km/h 54 % 0.0 mm
14:20 20.8 °C 11.0 °C 1016.8 hPa SSE 17.2 km/h 17.2 km/h 53 % 0.0 mm
14:25 20.6 °C 10.0 °C 1016.8 hPa SSE 9.0 km/h 17.2 km/h 51 % 0.0 mm
14:30 20.7 °C 10.0 °C 1016.8 hPa SW 14.0 km/h 16.9 km/h 51 % 0.0 mm
14:35 20.7 °C 10.0 °C 1016.8 hPa South 13.0 km/h 16.9 km/h 51 % 0.0 mm
14:40 20.7 °C 11.0 °C 1016.8 hPa SSW 10.1 km/h 15.4 km/h 52 % 0.0 mm
14:45 20.7 °C 11.0 °C 1016.1 hPa SSW 12.2 km/h 14.0 km/h 52 % 0.0 mm
14:51 20.7 °C 11.0 °C 1016.1 hPa SSW 5.0 km/h 14.0 km/h 52 % 0.0 mm
14:56 20.7 °C 11.0 °C 1016.1 hPa SSW 11.9 km/h 11.9 km/h 52 % 0.0 mm
15:01 20.7 °C 11.0 °C 1016.8 hPa WSW 13.7 km/h 15.8 km/h 52 % 0.0 mm
15:06 20.7 °C 11.0 °C 1016.8 hPa SSW 11.9 km/h 17.7 km/h 52 % 0.0 mm
15:11 20.7 °C 11.0 °C 1016.8 hPa SSW 13.0 km/h 17.7 km/h 52 % 0.0 mm
15:16 20.9 °C 11.0 °C 1016.1 hPa SSW 14.0 km/h 14.0 km/h 53 % 0.0 mm
15:21 21.0 °C 11.0 °C 1016.1 hPa SSW 11.1 km/h 16.9 km/h 53 % 0.0 mm
15:26 21.0 °C 11.0 °C 1016.1 hPa SW 2.6 km/h 16.9 km/h 53 % 0.0 mm
15:31 21.0 °C 11.0 °C 1016.8 hPa South 9.7 km/h 12.6 km/h 53 % 0.0 mm
15:36 21.1 °C 12.0 °C 1016.8 hPa South 11.9 km/h 14.0 km/h 54 % 0.0 mm
15:41 21.0 °C 11.0 °C 1016.8 hPa SSW 4.7 km/h 14.0 km/h 53 % 0.0 mm
15:46 20.9 °C 11.0 °C 1016.8 hPa South 10.8 km/h 17.2 km/h 53 % 0.0 mm
15:51 21.3 °C 12.0 °C 1016.8 hPa SSW 7.9 km/h 17.2 km/h 54 % 0.0 mm
15:56 21.2 °C 12.0 °C 1016.8 hPa SSW 8.7 km/h 16.3 km/h 53 % 0.0 mm
16:01 21.3 °C 12.0 °C 1016.8 hPa South 8.7 km/h 16.3 km/h 53 % 0.0 mm
16:06 21.3 °C 12.0 °C 1016.8 hPa WSW 7.6 km/h 12.2 km/h 53 % 0.0 mm
16:11 21.4 °C 11.0 °C 1016.8 hPa SSW 13.7 km/h 13.7 km/h 51 % 0.0 mm
16:16 21.4 °C 11.0 °C 1016.8 hPa WSW 3.5 km/h 15.8 km/h 52 % 0.0 mm
16:21 21.4 °C 11.0 °C 1016.8 hPa South 9.7 km/h 15.8 km/h 52 % 0.0 mm
16:26 21.5 °C 11.0 °C 1016.8 hPa South 9.3 km/h 15.4 km/h 51 % 0.0 mm
16:31 21.4 °C 11.0 °C 1016.8 hPa South 10.1 km/h 15.4 km/h 51 % 0.0 mm
16:36 21.4 °C 11.0 °C 1016.8 hPa SSW 9.7 km/h 14.0 km/h 51 % 0.0 mm
16:41 21.3 °C 11.0 °C 1016.8 hPa South 10.5 km/h 20.1 km/h 51 % 0.0 mm
16:46 21.2 °C 11.0 °C 1016.8 hPa SSE 9.7 km/h 20.1 km/h 51 % 0.0 mm
16:51 21.0 °C 10.0 °C 1016.8 hPa SSW 10.1 km/h 19.1 km/h 50 % 0.0 mm
16:56 21.3 °C 12.0 °C 1016.8 hPa SSW 9.3 km/h 14.0 km/h 53 % 0.0 mm
17:01 21.4 °C 11.0 °C 1016.8 hPa South 9.0 km/h 13.0 km/h 52 % 0.0 mm
17:06 21.3 °C 11.0 °C 1016.8 hPa SSW 6.9 km/h 13.0 km/h 51 % 0.0 mm
17:11 21.2 °C 11.0 °C 1016.8 hPa South 5.8 km/h 14.3 km/h 52 % 0.0 mm
17:16 21.1 °C 11.0 °C 1016.8 hPa SSE 9.3 km/h 16.6 km/h 52 % 0.0 mm
17:21 21.0 °C 11.0 °C 1016.8 hPa SSE 14.0 km/h 16.6 km/h 52 % 0.0 mm
17:26 20.8 °C 11.0 °C 1016.8 hPa Calm   16.6 km/h 52 % 0.0 mm
17:31 21.0 °C 11.0 °C 1016.8 hPa SSW 7.9 km/h 16.6 km/h 53 % 0.0 mm
17:36 20.9 °C 11.0 °C 1016.8 hPa South 12.6 km/h 14.0 km/h 53 % 0.0 mm
17:41 20.5 °C 11.0 °C 1016.8 hPa SSW 9.7 km/h 13.0 km/h 53 % 0.0 mm
17:47 20.5 °C 11.0 °C 1016.8 hPa SSW 9.0 km/h 12.2 km/h 54 % 0.0 mm
17:52 20.7 °C 11.0 °C 1016.8 hPa South 12.6 km/h 12.6 km/h 55 % 0.0 mm
17:57 20.6 °C 11.0 °C 1016.8 hPa SSW 6.1 km/h 12.6 km/h 54 % 0.0 mm
18:02 20.6 °C 11.0 °C 1016.8 hPa SSW 7.9 km/h 11.6 km/h 54 % 0.0 mm
18:07 20.6 °C 11.0 °C 1016.8 hPa South 5.0 km/h 10.5 km/h 54 % 0.0 mm
18:12 19.8 °C 11.0 °C 1016.8 hPa SSE 4.7 km/h 9.7 km/h 56 % 0.0 mm
18:17 19.7 °C 12.0 °C 1016.8 hPa South 7.6 km/h 12.6 km/h 59 % 0.0 mm
18:22 19.7 °C 12.0 °C 1016.8 hPa Calm   12.6 km/h 59 % 0.0 mm
18:27 19.6 °C 12.0 °C 1016.8 hPa Calm   10.5 km/h 60 % 0.0 mm
18:32 19.4 °C 12.0 °C 1016.8 hPa WSW 1.4 km/h 9.7 km/h 61 % 0.0 mm
18:37 19.3 °C 12.0 °C 1016.8 hPa South 5.5 km/h 6.1 km/h 62 % 0.0 mm
18:42 19.0 °C 12.0 °C 1016.8 hPa SSE 2.1 km/h 6.4 km/h 63 % 0.0 mm
18:47 18.9 °C 12.0 °C 1016.8 hPa Calm   6.4 km/h 64 % 0.0 mm
18:53 18.7 °C 12.0 °C 1016.8 hPa Calm   3.2 km/h 64 % 0.0 mm
18:58 18.5 °C 12.0 °C 1016.8 hPa Calm   3.2 km/h 65 % 0.0 mm
19:03 18.5 °C 12.0 °C 1016.8 hPa Calm   3.2 km/h 65 % 0.0 mm
19:08 18.1 °C 12.0 °C 1016.8 hPa Calm   1.8 km/h 66 % 0.0 mm
19:13 17.9 °C 12.0 °C 1016.8 hPa Calm   1.8 km/h 67 % 0.0 mm
19:18 17.7 °C 12.0 °C 1016.1 hPa Calm     67 % 0.0 mm
19:23 17.5 °C 12.0 °C 1016.1 hPa Calm     68 % 0.0 mm
19:28 17.5 °C 12.0 °C 1016.1 hPa Calm     68 % 0.0 mm
19:33 17.1 °C 11.0 °C 1016.8 hPa Calm   1.4 km/h 68 % 0.0 mm
19:38 17.1 °C 11.0 °C 1016.8 hPa Calm   1.4 km/h 68 % 0.0 mm
19:43 16.4 °C 11.0 °C 1016.8 hPa Calm     70 % 0.0 mm
19:48 16.1 °C 11.0 °C 1016.8 hPa Calm     71 % 0.0 mm
19:53 15.9 °C 11.0 °C 1016.8 hPa Calm     72 % 0.0 mm
19:58 15.7 °C 11.0 °C 1016.8 hPa Calm     72 % 0.0 mm
20:03 15.2 °C 11.0 °C 1016.8 hPa Calm     73 % 0.0 mm
20:08 15.1 °C 10.0 °C 1016.8 hPa Calm     73 % 0.0 mm
20:13 14.8 °C 10.0 °C 1016.8 hPa Calm     74 % 0.0 mm
20:18 14.5 °C 11.0 °C 1016.8 hPa Calm     75 % 0.0 mm
20:23 14.2 °C 10.0 °C 1016.8 hPa Calm     76 % 0.0 mm
20:29 14.0 °C 10.0 °C 1016.8 hPa Calm     77 % 0.0 mm
20:34 13.9 °C 10.0 °C 1016.8 hPa Calm     78 % 0.0 mm
20:39 13.7 °C 10.0 °C 1016.8 hPa Calm     79 % 0.0 mm
20:44 13.5 °C 11.0 °C 1016.8 hPa Calm     80 % 0.0 mm
20:49 13.5 °C 11.0 °C 1016.8 hPa Calm     81 % 0.0 mm
20:54 13.5 °C 11.0 °C 1016.8 hPa Calm     81 % 0.0 mm
20:59 13.5 °C 11.0 °C 1016.8 hPa Calm     81 % 0.0 mm
21:04 13.5 °C 11.0 °C 1016.8 hPa Calm     81 % 0.0 mm
21:09 13.4 °C 11.0 °C 1016.8 hPa Calm     83 % 0.0 mm
21:14 13.3 °C 11.0 °C 1016.8 hPa Calm     84 % 0.0 mm
21:19 13.3 °C 11.0 °C 1018.2 hPa Calm     84 % 0.0 mm
21:24 13.3 °C 11.0 °C 1018.2 hPa Calm     84 % 0.0 mm
21:29 13.1 °C 11.0 °C 1018.2 hPa Calm     85 % 0.0 mm
21:34 13.0 °C 11.0 °C 1018.2 hPa Calm     85 % 0.0 mm
21:39 13.0 °C 11.0 °C 1018.2 hPa Calm     85 % 0.0 mm
21:44 13.1 °C 11.0 °C 1018.2 hPa Calm     86 % 0.0 mm
21:49 13.1 °C 11.0 °C 1018.2 hPa Calm     87 % 0.0 mm
21:54 13.0 °C 11.0 °C 1018.2 hPa Calm     86 % 0.0 mm
21:59 12.9 °C 11.0 °C 1018.2 hPa Calm     88 % 0.0 mm
22:05 12.8 °C 11.0 °C 1018.2 hPa Calm     88 % 0.0 mm
22:10 12.7 °C 11.0 °C 1018.2 hPa Calm     88 % 0.0 mm
22:15 12.7 °C 11.0 °C 1018.2 hPa Calm     88 % 0.0 mm
22:18 12.5 °C 11.0 °C 1018.2 hPa Calm     89 % 0.0 mm
22:23 12.5 °C 11.0 °C 1018.2 hPa Calm     89 % 0.0 mm
22:29 12.5 °C 11.0 °C 1018.2 hPa Calm     89 % 0.0 mm
22:34 12.4 °C 11.0 °C 1018.2 hPa Calm     90 % 0.0 mm
22:39 12.4 °C 11.0 °C 1018.2 hPa Calm     90 % 0.0 mm
22:44 12.3 °C 11.0 °C 1018.2 hPa Calm     91 % 0.0 mm
22:49 12.2 °C 11.0 °C 1018.2 hPa Calm     91 % 0.0 mm
22:54 12.2 °C 11.0 °C 1018.2 hPa Calm     91 % 0.0 mm
22:59 12.0 °C 11.0 °C 1018.2 hPa Calm     91 % 0.0 mm
23:04 11.9 °C 11.0 °C 1018.2 hPa Calm     91 % 0.0 mm
23:09 11.9 °C 11.0 °C 1018.2 hPa Calm     92 % 0.0 mm
23:14 11.7 °C 10.0 °C 1018.2 hPa Calm     92 % 0.0 mm
23:19 11.6 °C 10.0 °C 1016.8 hPa Calm     92 % 0.0 mm
23:24 11.4 °C 10.0 °C 1016.8 hPa Calm     92 % 0.0 mm
23:29 11.2 °C 10.0 °C 1016.8 hPa Calm     92 % 0.0 mm
23:34 11.2 °C 10.0 °C 1018.2 hPa Calm     92 % 0.0 mm
23:39 11.1 °C 10.0 °C 1018.2 hPa Calm     92 % 0.0 mm
23:44 11.1 °C 10.0 °C 1018.2 hPa Calm     92 % 0.0 mm
23:49 11.1 °C 10.0 °C 1018.2 hPa Calm     93 % 0.0 mm
23:51 11.1 °C 10.0 °C 1018.2 hPa Calm     93 % 0.0 mm
23:57 11.0 °C 10.0 °C 1018.2 hPa Calm     93 % 0.0 mm
Le Gheer Warneton
Courtoisie de Weather Underground - 2.25 mb

Mise a jour : 16-12-17 12:15:12
Généré par Cumulus 1.9.4 (1099)